When you browse on this site, cookies collect data to enhance your experience and personalize the content and advertising you see.
Visit our Privacy Policy to learn more. By continuing to use the site, you agree to this use of cookies and data.
  • In Czech Republic
  • List of Countries
  • For 7 days
  • Water Temperature
  • Satellite Maps
  • Weather Map
  • Weather Widgets
  • user-avatar
    Login

    Hourly Weather Qala i Naw

    Today, 23 May, Thursday

    Time Temperature Precipitation Wind Pressure Humidity
    00:00 +14°C° 0 mm 2 mps 681 mmHg 37%
    01:00 +14°C° 0 mm 2 mps 680 mmHg 37%
    02:00 +13°C° 0 mm 2 mps 680 mmHg 38%
    03:00 +13°C° 0 mm 2 mps 680 mmHg 38%
    04:00 +12°C° 0 mm 2 mps 679 mmHg 39%
    05:00 +13°C° 0 mm 2 mps 679 mmHg 38%
    06:00 +13°C° 0 mm 2 mps 680 mmHg 37%
    07:00 +13°C° 0 mm 2 mps 680 mmHg 36%
    08:00 +14°C° 0 mm 3 mps 680 mmHg 33%
    09:00 +16°C° 0 mm 3 mps 680 mmHg 31%
    10:00 +16°C° 0 mm 3 mps 679 mmHg 32%
    11:00 +18°C° 0 mm 4 mps 679 mmHg 30%
    12:00 +19°C° 0 mm 4 mps 680 mmHg 29%
    13:00 +20°C° 0 mm 5 mps 680 mmHg 27%
    14:00 +20°C° 0 mm 5 mps 680 mmHg 27%
    15:00 +21°C° 0 mm 5 mps 680 mmHg 28%
    16:00 +20°C° 0 mm 4 mps 680 mmHg 31%
    17:00 +19°C° 0 mm 4 mps 680 mmHg 33%
    18:00 +19°C° 0 mm 4 mps 680 mmHg 35%
    19:00 +18°C° 0 mm 3 mps 680 mmHg 37%
    20:00 +17°C° 0 mm 3 mps 680 mmHg 39%
    21:00 +17°C° 0 mm 2 mps 680 mmHg 41%
    22:00 +16°C° 0 mm 1 mps 680 mmHg 44%
    23:00 +16°C° 0 mm 1 mps 680 mmHg 45%

    Tomorrow, 24 May, Friday

    Time Temperature Precipitation Wind Pressure Humidity
    00:00 +14°C° 0 mm 0 mps 680 mmHg 47%
    01:00 +14°C° 0 mm 0 mps 680 mmHg 49%
    02:00 +14°C° 0 mm 0 mps 680 mmHg 50%
    03:00 +14°C° 0 mm 0 mps 680 mmHg 50%
    04:00 +13°C° 0 mm 0 mps 680 mmHg 51%
    05:00 +15°C° 0 mm 0 mps 680 mmHg 47%
    06:00 +16°C° 0 mm 0 mps 681 mmHg 43%
    07:00 +17°C° 0 mm 0 mps 681 mmHg 39%
    08:00 +20°C° 0 mm 1 mps 681 mmHg 35%
    09:00 +21°C° 0 mm 2 mps 682 mmHg 31%
    10:00 +24°C° 0 mm 2 mps 682 mmHg 28%
    11:00 +25°C° 0 mm 3 mps 682 mmHg 25%
    12:00 +26°C° 0 mm 3 mps 682 mmHg 22%
    13:00 +27°C° 0 mm 4 mps 682 mmHg 19%
    14:00 +27°C° 0 mm 3 mps 682 mmHg 18%
    15:00 +27°C° 0 mm 3 mps 682 mmHg 17%
    16:00 +27°C° 0 mm 3 mps 682 mmHg 16%
    17:00 +26°C° 0 mm 2 mps 682 mmHg 18%
    18:00 +26°C° 0 mm 1 mps 682 mmHg 20%
    19:00 +25°C° 0 mm 1 mps 682 mmHg 22%
    20:00 +24°C° 0 mm 1 mps 682 mmHg 22%
    21:00 +24°C° 0 mm 1 mps 683 mmHg 23%
    22:00 +23°C° 0 mm 2 mps 683 mmHg 23%
    23:00 +23°C° 0 mm 2 mps 683 mmHg 23%

    Day after tomorrow, 25 May, Saturday

    Time Temperature Precipitation Wind Pressure Humidity
    00:00 +21°C° 0 mm 2 mps 682 mmHg 24%
    01:00 +22°C° 0 mm 1 mps 682 mmHg 24%
    02:00 +21°C° 0 mm 1 mps 682 mmHg 25%
    03:00 +21°C° 0 mm 1 mps 682 mmHg 26%
    04:00 +21°C° 0 mm 1 mps 682 mmHg 27%
    05:00 +22°C° 0 mm 1 mps 682 mmHg 26%
    06:00 +23°C° 0 mm 1 mps 683 mmHg 24%
    07:00 +25°C° 0 mm 1 mps 683 mmHg 23%
    08:00 +26°C° 0 mm 2 mps 683 mmHg 22%
    09:00 +27°C° 0 mm 2 mps 684 mmHg 22%
    10:00 +28°C° 0 mm 2 mps 684 mmHg 21%
    11:00 +29°C° 0 mm 3 mps 684 mmHg 21%
    12:00 +29°C° 0 mm 3 mps 684 mmHg 20%
    13:00 +30°C° 0 mm 4 mps 683 mmHg 20%
    14:00 +30°C° 0 mm 5 mps 683 mmHg 20%
    15:00 +30°C° 0 mm 5 mps 683 mmHg 20%
    16:00 +30°C° 0 mm 6 mps 683 mmHg 21%
    17:00 +29°C° 0 mm 5 mps 683 mmHg 23%
    18:00 +28°C° 0 mm 4 mps 683 mmHg 25%
    19:00 +27°C° 0 mm 4 mps 683 mmHg 27%
    20:00 +26°C° 0 mm 3 mps 684 mmHg 29%
    21:00 +25°C° 0 mm 2 mps 684 mmHg 31%
    22:00 +24°C° 0 mm 1 mps 684 mmHg 33%
    23:00 +23°C° 0 mm 1 mps 684 mmHg 34%

    26 May, Sunday

    Time Temperature Precipitation Wind Pressure Humidity
    00:00 +23°C° 0 mm 1 mps 683 mmHg 35%
    01:00 +22°C° 0 mm 1 mps 683 mmHg 36%
    02:00 +21°C° 0 mm 1 mps 683 mmHg 37%
    03:00 +21°C° 0 mm 1 mps 682 mmHg 38%
    04:00 +20°C° 0 mm 1 mps 682 mmHg 39%
    05:00 +21°C° 0 mm 1 mps 682 mmHg 35%
    06:00 +22°C° 0 mm 1 mps 683 mmHg 31%
    07:00 +23°C° 0 mm 1 mps 683 mmHg 26%
    08:00 +25°C° 0 mm 1 mps 683 mmHg 24%
    09:00 +26°C° 0 mm 2 mps 683 mmHg 23%
    10:00 +27°C° 0 mm 2 mps 683 mmHg 21%
    11:00 +28°C° 0 mm 3 mps 683 mmHg 19%
    12:00 +29°C° 0 mm 4 mps 683 mmHg 17%
    13:00 +30°C° 0 mm 4 mps 683 mmHg 15%
    14:00 +32°C° 0 mm 4 mps 682 mmHg 14%
    15:00 +32°C° 0 mm 5 mps 682 mmHg 14%
    16:00 +32°C° 0 mm 5 mps 682 mmHg 13%
    17:00 +30°C° 0 mm 5 mps 682 mmHg 14%
    18:00 +29°C° 0 mm 4 mps 682 mmHg 16%
    19:00 +28°C° 0 mm 3 mps 682 mmHg 18%
    20:00 +26°C° 0 mm 2 mps 682 mmHg 20%
    21:00 +25°C° 0 mm 2 mps 682 mmHg 23%
    22:00 +24°C° 0 mm 1 mps 682 mmHg 25%
    23:00 +23°C° 0 mm 1 mps 682 mmHg 26%

    27 May, Monday

    Time Temperature Precipitation Wind Pressure Humidity
    00:00 +23°C° 0 mm 1 mps 682 mmHg 28%
    01:00 +22°C° 0 mm 1 mps 681 mmHg 29%
    02:00 +21°C° 0 mm 1 mps 681 mmHg 30%
    03:00 +21°C° 0 mm 1 mps 681 mmHg 30%
    04:00 +18°C° 0 mm 0 mps 681 mmHg 31%
    05:00 +22°C° 0 mm 1 mps 681 mmHg 28%
    06:00 +23°C° 0 mm 1 mps 682 mmHg 25%
    07:00 +24°C° 0 mm 1 mps 682 mmHg 22%
    08:00 +26°C° 0 mm 1 mps 682 mmHg 20%
    09:00 +27°C° 0 mm 2 mps 682 mmHg 18%
    10:00 +28°C° 0 mm 2 mps 682 mmHg 16%
    11:00 +29°C° 0 mm 3 mps 682 mmHg 14%
    12:00 +31°C° 0 mm 3 mps 682 mmHg 12%
    13:00 +33°C° 0 mm 4 mps 682 mmHg 11%
    14:00 +33°C° 0 mm 4 mps 682 mmHg 10%
    15:00 +33°C° 0 mm 5 mps 681 mmHg 9%
    16:00 +34°C° 0 mm 5 mps 681 mmHg 9%
    17:00 +32°C° 0 mm 4 mps 681 mmHg 10%
    18:00 +30°C° 0 mm 4 mps 681 mmHg 12%
    19:00 +29°C° 0 mm 3 mps 681 mmHg 13%
    20:00 +27°C° 0 mm 2 mps 681 mmHg 16%
    21:00 +26°C° 0 mm 2 mps 681 mmHg 18%
    22:00 +25°C° 0 mm 1 mps 681 mmHg 20%
    23:00 +24°C° 0 mm 1 mps 681 mmHg 21%

    28 May, Tuesday

    Time Temperature Precipitation Wind Pressure Humidity
    00:00 +24°C° 0 mm 1 mps 681 mmHg 22%
    01:00 +23°C° 0 mm 1 mps 680 mmHg 22%
    02:00 +22°C° 0 mm 1 mps 680 mmHg 23%
    03:00 +22°C° 0 mm 1 mps 680 mmHg 24%
    04:00 +21°C° 0 mm 1 mps 680 mmHg 25%
    05:00 +22°C° 0 mm 1 mps 680 mmHg 23%
    06:00 +24°C° 0 mm 1 mps 681 mmHg 20%
    07:00 +25°C° 0 mm 1 mps 682 mmHg 18%
    08:00 +26°C° 0 mm 2 mps 682 mmHg 17%
    09:00 +28°C° 0 mm 2 mps 682 mmHg 15%
    10:00 +29°C° 0 mm 3 mps 682 mmHg 14%
    11:00 +31°C° 0 mm 3 mps 682 mmHg 13%
    12:00 +33°C° 0 mm 4 mps 682 mmHg 12%
    13:00 +34°C° 0 mm 5 mps 681 mmHg 11%
    14:00 +34°C° 0 mm 6 mps 681 mmHg 10%
    15:00 +35°C° 0 mm 6 mps 681 mmHg 10%
    16:00 +35°C° 0 mm 7 mps 681 mmHg 10%
    17:00 +33°C° 0 mm 6 mps 681 mmHg 11%
    18:00 +32°C° 0 mm 5 mps 681 mmHg 12%
    19:00 +30°C° 0 mm 5 mps 681 mmHg 13%
    20:00 +28°C° 0 mm 4 mps 681 mmHg 14%
    21:00 +27°C° 0 mm 3 mps 681 mmHg 15%
    22:00 +26°C° 0 mm 2 mps 681 mmHg 15%
    23:00 +25°C° 0 mm 2 mps 681 mmHg 16%
    Show more